| time (UTC) | temp F | wind direction | speed knots | gust knots | rain 1hr in | rain 24hr in | rain mn in | humidity % | barometer mb |
| 20260506004723 | 51 | 94 | 0.9 | 5.2 | 0.00 | 0.05 | 0.05 | 53 | 1010.7 |
| 20260506004221 | 51 | 15 | 0.0 | 1.7 | 0.00 | 0.05 | 0.05 | 55 | 1011.4 |
| 20260506003717 | 51 | 315 | 2.6 | 4.3 | 0.00 | 0.05 | 0.05 | 55 | 1011.5 |
| 20260506003214 | 52 | 16 | 0.0 | 0.9 | 0.00 | 0.05 | 0.05 | 54 | 1011.2 |
| 20260506002709 | 52 | 17 | 0.9 | 11.3 | 0.00 | 0.05 | 0.05 | 51 | 1010.8 |
| 20260506002206 | 52 | 232 | 4.3 | 6.1 | 0.00 | 0.05 | 0.05 | 52 | 1011.0 |
| 20260506001702 | 52 | 23 | 4.3 | 7.0 | 0.00 | 0.05 | 0.05 | 53 | 1010.9 |
| 20260506001200 | 52 | 296 | 3.5 | 5.2 | 0.00 | 0.05 | 0.05 | 53 | 1010.9 |
| 20260506000656 | 52 | 250 | 1.7 | 7.0 | 0.00 | 0.05 | 0.05 | 53 | 1011.0 |
| 20260506000154 | 53 | 350 | 2.6 | 6.1 | 0.00 | 0.05 | 0.05 | 54 | 1011.0 |
| 20260505235652 | 53 | 300 | 1.7 | 5.2 | 0.00 | 0.05 | 0.05 | 52 | 1011.2 |
| 20260505235149 | 56 | 233 | 3.5 | 6.1 | 0.00 | 0.05 | 0.05 | 49 | 1010.7 |
| 20260505234645 | 57 | 321 | 3.5 | 6.1 | 0.00 | 0.05 | 0.05 | 49 | 1010.8 |
| 20260505234142 | 56 | 358 | 0.9 | 1.7 | 0.00 | 0.05 | 0.05 | 53 | 1010.8 |
| 20260505233639 | 55 | 7 | 1.7 | 7.0 | 0.00 | 0.05 | 0.05 | 53 | 1010.9 |
| 20260505233137 | 55 | 310 | 5.2 | 7.8 | 0.00 | 0.05 | 0.05 | 52 | 1011.0 |
| 20260505232634 | 54 | 353 | 2.6 | 6.1 | 0.00 | 0.05 | 0.05 | 53 | 1010.9 |
| 20260505232132 | 55 | 300 | 2.6 | 6.1 | 0.00 | 0.05 | 0.05 | 54 | 1011.2 |
| 20260505231628 | 56 | 358 | 1.7 | 7.0 | 0.00 | 0.05 | 0.05 | 51 | 1011.3 |
| 20260505231127 | 55 | 306 | 4.3 | 7.0 | 0.00 | 0.05 | 0.05 | 52 | 1011.3 |
| 20260505230625 | 54 | 269 | 2.6 | 5.2 | 0.00 | 0.05 | 0.05 | 58 | 1010.9 |
| 20260505230121 | 54 | 293 | 5.2 | 6.1 | 0.00 | 0.05 | 0.05 | 60 | 1010.8 |
| 20260505225617 | 53 | 306 | 2.6 | 7.0 | 0.00 | 0.05 | 0.05 | 62 | 1010.9 |
| 20260505225114 | 52 | 353 | 0.9 | 7.0 | 0.00 | 0.05 | 0.05 | 67 | 1011.2 |
| 20260505224610 | 50 | 241 | 1.7 | 2.6 | 0.00 | 0.05 | 0.05 | 75 | 1011.0 |
| 20260505224108 | 51 | 298 | 2.6 | 4.3 | 0.00 | 0.05 | 0.05 | 75 | 1011.4 |
| 20260505223605 | 50 | 162 | 2.6 | 2.6 | 0.00 | 0.05 | 0.05 | 77 | 1011.4 |
| 20260505223101 | 49 | 295 | 2.6 | 5.2 | 0.00 | 0.05 | 0.05 | 83 | 1011.5 |
| 20260505222558 | 48 | 169 | 0.9 | 1.7 | 0.00 | 0.05 | 0.05 | 78 | 1011.9 |
| 20260505222054 | 48 | 32 | 0.0 | 0.9 | 0.07 | 0.05 | 0.05 | 87 | 1011.9 |
| 20260505221551 | 47 | 260 | 2.6 | 7.0 | 0.07 | 0.05 | 0.05 | 81 | 1012.0 |
| 20260505221047 | 47 | 14 | 1.7 | 8.7 | 0.05 | 0.04 | 0.04 | 78 | 1011.9 |
| 20260505220545 | 48 | 263 | 3.5 | 8.7 | 0.05 | 0.04 | 0.04 | 75 | 1011.9 |
| 20260505220043 | 49 | 306 | 1.7 | 11.3 | 0.00 | 0.03 | 0.03 | 72 | 1012.2 |
| 20260505215541 | 49 | 287 | 1.7 | 6.1 | 0.00 | 0.03 | 0.03 | 72 | 1011.8 |
| 20260505215038 | 51 | 270 | 4.3 | 9.6 | 0.00 | 0.03 | 0.03 | 64 | 1012.3 |
| 20260505214536 | 53 | 251 | 4.3 | 8.7 | 0.00 | 0.03 | 0.03 | 62 | 1012.2 |
| 20260505214032 | 55 | 224 | 3.5 | 7.0 | 0.00 | 0.03 | 0.03 | 59 | 1011.5 |
| 20260505213530 | 55 | 233 | 4.3 | 7.8 | 0.00 | 0.03 | 0.03 | 55 | 1011.7 |
| 20260505213026 | 56 | 329 | 1.7 | 7.8 | 0.00 | 0.03 | 0.03 | 53 | 1011.9 |
| 20260505212523 | 57 | 245 | 5.2 | 8.7 | 0.00 | 0.03 | 0.03 | 52 | 1012.0 |
| 20260505212020 | 57 | 201 | 5.2 | 12.2 | 0.00 | 0.03 | 0.03 | 51 | 1011.9 |
| 20260505211517 | 57 | 292 | 5.2 | 8.7 | 0.00 | 0.03 | 0.03 | 51 | 1012.0 |
| 20260505211014 | 58 | 3 | 0.0 | 12.2 | 0.00 | 0.03 | 0.03 | 51 | 1011.8 |
| 20260505210510 | 60 | 317 | 5.2 | 8.7 | 0.00 | 0.03 | 0.03 | 46 | 1011.7 |
| 20260505210008 | 59 | 316 | 1.7 | 4.3 | 0.00 | 0.03 | 0.03 | 48 | 1011.7 |
| 20260505205506 | 58 | 233 | 2.6 | 8.7 | 0.00 | 0.03 | 0.03 | 51 | 1011.5 |
| 20260505205003 | 56 | 312 | 4.3 | 8.7 | 0.00 | 0.03 | 0.03 | 55 | 1011.7 |
| 20260505204500 | 57 | 245 | 3.5 | 7.0 | 0.00 | 0.03 | 0.03 | 53 | 1011.8 |
| 20260505203957 | 57 | 221 | 7.8 | 9.6 | 0.00 | 0.03 | 0.03 | 51 | 1011.9 |
| 20260505203453 | 57 | 214 | 6.1 | 7.8 | 0.00 | 0.03 | 0.03 | 54 | 1012.2 |
| 20260505202950 | 57 | 251 | 3.5 | 7.0 | 0.00 | 0.03 | 0.03 | 53 | 1012.2 |
| 20260505202447 | 56 | 118 | 0.9 | 7.8 | 0.00 | 0.03 | 0.03 | 57 | 1011.8 |
| 20260505201943 | 55 | 219 | 4.3 | 9.6 | 0.00 | 0.03 | 0.03 | 58 | 1012.0 |
| 20260505201440 | 54 | 326 | 2.6 | 5.2 | 0.00 | 0.03 | 0.03 | 60 | 1012.4 |
| 20260505200938 | 55 | 201 | 5.2 | 9.6 | 0.00 | 0.03 | 0.03 | 58 | 1012.2 |
| 20260505200436 | 56 | 199 | 4.3 | 9.6 | 0.00 | 0.03 | 0.03 | 57 | 1011.9 |
| 20260505195931 | 54 | 17 | 1.7 | 7.0 | 0.00 | 0.03 | 0.03 | 63 | 1012.0 |
| 20260505195428 | 54 | 246 | 5.2 | 8.7 | 0.00 | 0.03 | 0.03 | 61 | 1012.2 |
| 20260505194925 | 54 | 309 | 5.2 | 9.6 | 0.07 | 0.03 | 0.03 | 63 | 1012.2 |
| 20260505194423 | 53 | 226 | 4.3 | 8.7 | 0.07 | 0.03 | 0.03 | 66 | 1012.4 |
| 20260505193922 | 53 | 311 | 5.2 | 9.6 | 0.00 | 0.02 | 0.02 | 65 | 1012.3 |
| 20260505193420 | 52 | 291 | 2.6 | 7.0 | 0.00 | 0.02 | 0.02 | 69 | 1012.2 |
| 20260505192918 | 51 | 282 | 2.6 | 8.7 | 0.00 | 0.02 | 0.02 | 74 | 1012.5 |
| 20260505192416 | 51 | 189 | 4.3 | 7.0 | 0.00 | 0.02 | 0.02 | 76 | 1012.5 |
| 20260505191913 | 50 | 20 | 0.0 | 4.3 | 0.00 | 0.02 | 0.02 | 82 | 1012.5 |
| 20260505191412 | 50 | 354 | 0.9 | 5.2 | 0.00 | 0.02 | 0.02 | 81 | 1012.5 |
| 20260505190908 | 49 | 12 | 0.0 | 1.7 | 0.00 | 0.02 | 0.02 | 88 | 1012.5 |
| 20260505190404 | 48 | 209 | 1.7 | 5.2 | 0.05 | 0.02 | 0.02 | 84 | 1012.8 |
| 20260505185859 | 48 | 278 | 0.9 | 4.3 | 0.12 | 0.02 | 0.02 | 85 | 1012.9 |
| 20260505185356 | 48 | 287 | 2.6 | 4.3 | 0.07 | 0.01 | 0.01 | 82 | 1012.8 |
| 20260505184852 | 50 | 338 | 4.3 | 7.0 | 0.00 | 0.00 | 0.00 | 74 | 1012.9 |
| 20260505184349 | 53 | 295 | 4.3 | 6.1 | 0.00 | 0.00 | 0.00 | 66 | 1013.0 |
| 20260505183846 | 53 | 237 | 4.3 | 7.0 | 0.00 | 0.00 | 0.00 | 58 | 1012.5 |
| 20260505183343 | 54 | 148 | 2.6 | 6.1 | 0.00 | 0.00 | 0.00 | 57 | 1012.5 |
| 20260505182840 | 56 | 173 | 5.2 | 7.8 | 0.00 | 0.00 | 0.00 | 50 | 1012.5 |
| 20260505182337 | 56 | 249 | 5.2 | 13.0 | 0.00 | 0.00 | 0.00 | 49 | 1012.8 |
| 20260505181834 | 56 | 207 | 2.6 | 7.0 | 0.00 | 0.00 | 0.00 | 50 | 1012.7 |
| 20260505181331 | 57 | 198 | 4.3 | 8.7 | 0.00 | 0.00 | 0.00 | 48 | 1012.7 |
| 20260505180827 | 56 | 237 | 2.6 | 9.6 | 0.00 | 0.00 | 0.00 | 49 | 1012.8 |
| 20260505180324 | 56 | 207 | 4.3 | 13.0 | 0.00 | 0.00 | 0.00 | 49 | 1012.8 |
| 20260505175820 | 56 | 198 | 3.5 | 7.8 | 0.00 | 0.00 | 0.00 | 49 | 1012.8 |
| 20260505175317 | 55 | 149 | 5.2 | 7.0 | 0.00 | 0.00 | 0.00 | 50 | 1012.8 |
| 20260505174813 | 54 | 156 | 3.5 | 6.1 | 0.00 | 0.00 | 0.00 | 51 | 1012.8 |
| 20260505174311 | 56 | 229 | 3.5 | 7.8 | 0.00 | 0.00 | 0.00 | 49 | 1012.7 |
| 20260505173806 | 56 | 228 | 4.3 | 7.0 | 0.00 | 0.00 | 0.00 | 49 | 1012.7 |
| 20260505173303 | 55 | 133 | 4.3 | 7.0 | 0.00 | 0.00 | 0.00 | 49 | 1012.8 |
| 20260505172800 | 57 | 165 | 2.6 | 5.2 | 0.00 | 0.00 | 0.00 | 47 | 1012.8 |
| 20260505172257 | 57 | 265 | 2.6 | 5.2 | 0.00 | 0.00 | 0.00 | 49 | 1012.9 |
| 20260505171752 | 55 | 85 | 0.9 | 5.2 | 0.00 | 0.00 | 0.00 | 51 | 1013.1 |
| 20260505171249 | 53 | 184 | 2.6 | 4.3 | 0.00 | 0.00 | 0.00 | 53 | 1013.4 |
| 20260505170746 | 51 | 69 | 0.0 | 0.0 | 0.00 | 0.00 | 0.00 | 55 | 1013.0 |
| 20260505170243 | 51 | 219 | 1.7 | 4.3 | 0.00 | 0.00 | 0.00 | 55 | 1013.0 |
| 20260505165738 | 51 | 123 | 2.6 | 4.3 | 0.00 | 0.00 | 0.00 | 55 | 1013.3 |
| 20260505165234 | 51 | 259 | 2.6 | 4.3 | 0.00 | 0.00 | 0.00 | 54 | 1013.0 |
| 20260505164730 | 51 | 134 | 1.7 | 2.6 | 0.00 | 0.00 | 0.00 | 56 | 1013.5 |
| 20260505164227 | 50 | 160 | 2.6 | 2.6 | 0.00 | 0.00 | 0.00 | 57 | 1013.1 |
| 20260505163725 | 49 | 70 | 0.0 | 1.7 | 0.00 | 0.00 | 0.00 | 60 | 1013.4 |
| 20260505163224 | 48 | 88 | 0.9 | 0.9 | 0.00 | 0.00 | 0.00 | 64 | 1013.1 |
| 20260505162721 | 48 | 39 | 0.9 | 2.6 | 0.00 | 0.00 | 0.00 | 67 | 1013.4 |
| 20260505162218 | 48 | 44 | 0.9 | 1.7 | 0.00 | 0.00 | 0.00 | 65 | 1013.5 |
| 20260505161715 | 48 | 36 | 1.7 | 5.2 | 0.00 | 0.00 | 0.00 | 63 | 1013.4 |
| 20260505161212 | 48 | 58 | 0.9 | 2.6 | 0.00 | 0.00 | 0.00 | 64 | 1013.8 |
| 20260505160710 | 49 | 22 | 0.0 | 0.9 | 0.00 | 0.00 | 0.00 | 63 | 1013.9 |
| 20260505160207 | 49 | 0 | 0.9 | 1.7 | 0.00 | 0.00 | 0.00 | 60 | 1013.6 |
| 20260505153146 | 49 | 200 | 0.9 | 0.9 | 0.00 | 0.00 | 0.00 | 55 | 1013.5 |
| 20260505152643 | 49 | 193 | 1.7 | 1.7 | 0.00 | 0.00 | 0.00 | 55 | 1013.8 |
| 20260505152139 | 50 | 199 | 4.3 | 6.1 | 0.00 | 0.00 | 0.00 | 54 | 1013.6 |
| 20260505151634 | 49 | 19 | 0.0 | 0.9 | 0.00 | 0.00 | 0.00 | 55 | 1013.9 |
| 20260505151132 | 49 | 23 | 1.7 | 1.7 | 0.00 | 0.00 | 0.00 | 55 | 1013.8 |
| 20260505150628 | 49 | 350 | 3.5 | 7.0 | 0.00 | 0.00 | 0.00 | 56 | 1013.9 |
| 20260505150125 | 49 | 348 | 0.9 | 2.6 | 0.00 | 0.00 | 0.00 | 56 | 1014.0 |
| 20260505140553 | 50 | 18 | 0.9 | 2.6 | 0.00 | 0.00 | 0.00 | 48 | 1013.8 |
| 20260505125007 | 48 | 32 | 0.0 | 0.9 | 0.00 | 0.00 | 0.00 | 52 | 1013.5 |
| 20260505124503 | 48 | 46 | 0.0 | 0.0 | 0.00 | 0.00 | 0.00 | 51 | 1013.8 |
| 20260505124000 | 49 | 46 | 0.0 | 0.0 | 0.00 | 0.00 | 0.00 | 51 | 1013.6 |
| 20260505123456 | 49 | 42 | 0.0 | 0.0 | 0.00 | 0.00 | 0.00 | 49 | 1013.5 |
| 20260505122952 | 49 | 57 | 0.0 | 0.0 | 0.00 | 0.00 | 0.00 | 49 | 1013.8 |
| 20260505122450 | 49 | 58 | 0.0 | 0.0 | 0.00 | 0.00 | 0.00 | 48 | 1013.6 |
| 20260505121946 | 50 | 97 | 0.0 | 0.9 | 0.00 | 0.00 | 0.00 | 47 | 1013.8 |
| 20260505121443 | 50 | 18 | 0.0 | 0.9 | 0.00 | 0.00 | 0.00 | 46 | 1013.5 |
| 20260505120939 | 50 | 22 | 1.7 | 4.3 | 0.00 | 0.00 | 0.00 | 46 | 1013.8 |
| 20260505120436 | 49 | 215 | 3.5 | 5.2 | 0.00 | 0.00 | 0.00 | 46 | 1013.6 |
| 20260505115935 | 50 | 21 | 0.0 | 0.9 | 0.00 | 0.00 | 0.00 | 45 | 1013.3 |
| 20260505115432 | 50 | 18 | 0.0 | 0.9 | 0.00 | 0.00 | 0.00 | 45 | 1013.3 |
| 20260505114930 | 49 | 19 | 0.0 | 6.1 | 0.00 | 0.00 | 0.00 | 45 | 1013.1 |
| 20260505114426 | 49 | 35 | 0.0 | 0.0 | 0.00 | 0.00 | 0.00 | 42 | 1012.9 |
| 20260505113922 | 50 | 23 | 0.0 | 0.0 | 0.00 | 0.00 | 0.00 | 41 | 1013.0 |
| 20260505113419 | 50 | 1 | 0.0 | 0.9 | 0.00 | 0.00 | 0.00 | 40 | 1013.1 |
| 20260505112915 | 50 | 337 | 0.9 | 2.6 | 0.00 | 0.00 | 0.00 | 40 | 1013.4 |
| 20260505112413 | 50 | 264 | 2.6 | 4.3 | 0.00 | 0.00 | 0.00 | 40 | 1013.0 |
| 20260505111908 | 49 | 294 | 0.0 | 1.7 | 0.00 | 0.00 | 0.00 | 41 | 1013.3 |
| 20260505111403 | 49 | 39 | 0.0 | 0.0 | 0.00 | 0.00 | 0.00 | 39 | 1013.5 |
| 20260505110900 | 50 | 80 | 0.0 | 0.0 | 0.00 | 0.00 | 0.00 | 38 | 1013.4 |
| 20260505110357 | 49 | 27 | 0.0 | 0.0 | 0.00 | 0.00 | 0.00 | 37 | 1013.4 |
| 20260505101827 | 51 | 126 | 0.9 | 2.6 | 0.00 | 0.00 | 0.00 | 34 | 1013.4 |
| 20260505101322 | 51 | 107 | 0.0 | 0.9 | 0.00 | 0.00 | 0.00 | 34 | 1013.3 |
| 20260505100818 | 51 | 32 | 0.0 | 0.9 | 0.00 | 0.00 | 0.00 | 33 | 1013.0 |
| 20260505100315 | 52 | 355 | 0.9 | 1.7 | 0.00 | 0.00 | 0.00 | 33 | 1012.8 |
| 20260505095811 | 52 | 7 | 1.7 | 4.3 | 0.00 | 0.00 | 0.00 | 32 | 1012.9 |
| 20260505095309 | 52 | 25 | 0.9 | 2.6 | 0.00 | 0.00 | 0.00 | 31 | 1013.0 |
| 20260505094804 | 52 | 29 | 0.0 | 1.7 | 0.00 | 0.00 | 0.00 | 30 | 1012.9 |
| 20260505094301 | 52 | 25 | 0.0 | 0.9 | 0.00 | 0.00 | 0.00 | 30 | 1012.7 |
| 20260505093757 | 52 | 43 | 0.9 | 1.7 | 0.00 | 0.00 | 0.00 | 32 | 1012.7 |
| 20260505093255 | 52 | 35 | 0.0 | 0.9 | 0.00 | 0.00 | 0.00 | 31 | 1012.4 |
| 20260505092751 | 52 | 25 | 2.6 | 2.6 | 0.00 | 0.00 | 0.00 | 32 | 1012.7 |
| 20260505092250 | 52 | 0 | 0.9 | 6.1 | 0.00 | 0.00 | 0.00 | 33 | 1012.8 |
| 20260505091747 | 52 | 315 | 2.6 | 4.3 | 0.00 | 0.00 | 0.00 | 34 | 1012.7 |
| 20260505091245 | 52 | 313 | 4.3 | 7.8 | 0.00 | 0.00 | 0.00 | 36 | 1012.8 |
| 20260505090742 | 53 | 19 | 1.7 | 4.3 | 0.00 | 0.00 | 0.00 | 36 | 1013.1 |
| 20260505090240 | 53 | 310 | 4.3 | 7.0 | 0.00 | 0.00 | 0.00 | 36 | 1013.1 |
| 20260505085738 | 53 | 50 | 0.0 | 1.7 | 0.00 | 0.00 | 0.00 | 37 | 1013.1 |
| 20260505085236 | 53 | 25 | 1.7 | 6.1 | 0.00 | 0.00 | 0.00 | 37 | 1013.1 |
| 20260505084732 | 53 | 27 | 0.0 | 0.9 | 0.00 | 0.00 | 0.00 | 37 | 1013.3 |
| 20260505084232 | 53 | 338 | 0.9 | 2.6 | 0.00 | 0.00 | 0.00 | 37 | 1013.0 |
| 20260505083728 | 53 | 341 | 1.7 | 1.7 | 0.00 | 0.00 | 0.00 | 37 | 1013.3 |
| 20260505083225 | 53 | 19 | 0.9 | 6.1 | 0.00 | 0.00 | 0.00 | 36 | 1013.5 |
| 20260505082721 | 53 | 345 | 0.9 | 6.1 | 0.00 | 0.00 | 0.00 | 36 | 1013.1 |
| 20260505082219 | 53 | 24 | 0.9 | 7.8 | 0.00 | 0.00 | 0.00 | 36 | 1013.1 |
| 20260505081714 | 54 | 163 | 0.0 | 2.6 | 0.00 | 0.00 | 0.00 | 36 | 1013.5 |
| 20260505081212 | 54 | 40 | 0.0 | 6.1 | 0.00 | 0.00 | 0.00 | 36 | 1013.3 |
| 20260505080709 | 54 | 32 | 0.0 | 5.2 | 0.00 | 0.00 | 0.00 | 36 | 1013.3 |
| 20260505080204 | 54 | 34 | 7.8 | 13.0 | 0.00 | 0.00 | 0.00 | 36 | 1013.5 |
| 20260505075700 | 54 | 318 | 6.1 | 11.3 | 0.00 | 0.00 | 0.00 | 35 | 1013.4 |
| 20260505075157 | 55 | 5 | 0.9 | 7.0 | 0.00 | 0.00 | 0.00 | 35 | 1013.4 |
| 20260505074654 | 55 | 337 | 5.2 | 7.8 | 0.00 | 0.00 | 0.00 | 35 | 1013.3 |
| 20260505074151 | 55 | 353 | 2.6 | 2.6 | 0.00 | 0.00 | 0.00 | 34 | 1013.3 |
| 20260505073649 | 55 | 158 | 2.6 | 7.0 | 0.00 | 0.00 | 0.00 | 34 | 1013.6 |
| 20260505073147 | 55 | 295 | 0.9 | 12.2 | 0.00 | 0.00 | 0.00 | 33 | 1013.5 |
| 20260505072642 | 55 | 310 | 4.3 | 13.9 | 0.00 | 0.00 | 0.00 | 33 | 1013.4 |
| 20260505072139 | 55 | 198 | 0.9 | 7.8 | 0.00 | 0.00 | 0.00 | 33 | 1013.8 |
| 20260505071634 | 55 | 255 | 4.3 | 13.9 | 0.00 | 0.00 | 0.00 | 33 | 1013.4 |
| 20260505071133 | 55 | 67 | 0.0 | 7.8 | 0.00 | 0.00 | 0.00 | 32 | 1013.5 |
| 20260505070630 | 56 | 106 | 0.9 | 9.6 | 0.00 | 0.00 | 0.00 | 32 | 1013.5 |
| 20260505070126 | 56 | 219 | 2.6 | 5.2 | 0.00 | 0.00 | 0.00 | 32 | 1013.3 |
| 20260505065622 | 56 | 82 | 2.6 | 11.3 | 0.00 | 0.00 | 0.00 | 31 | 1013.1 |
| 20260505065118 | 56 | 289 | 6.1 | 9.6 | 0.00 | 0.00 | 0.00 | 31 | 1012.9 |
| 20260505064615 | 56 | 330 | 1.7 | 9.6 | 0.00 | 0.00 | 0.00 | 30 | 1013.1 |
| 20260505064114 | 57 | 283 | 7.0 | 9.6 | 0.00 | 0.00 | 0.00 | 30 | 1013.1 |
| 20260505063611 | 57 | 249 | 5.2 | 12.2 | 0.00 | 0.00 | 0.00 | 30 | 1012.8 |
| 20260505063107 | 57 | 5 | 1.7 | 8.7 | 0.00 | 0.00 | 0.00 | 29 | 1012.9 |
| 20260505062603 | 57 | 192 | 3.5 | 12.2 | 0.00 | 0.00 | 0.00 | 29 | 1013.1 |
| 20260505062101 | 57 | 330 | 4.3 | 15.6 | 0.00 | 0.00 | 0.00 | 29 | 1013.0 |
| 20260505061558 | 57 | 321 | 1.7 | 7.8 | 0.00 | 0.00 | 0.00 | 29 | 1013.1 |
| 20260505061056 | 57 | 194 | 4.3 | 14.8 | 0.00 | 0.00 | 0.00 | 29 | 1012.9 |
| 20260505060553 | 58 | 312 | 5.2 | 11.3 | 0.00 | 0.00 | 0.00 | 28 | 1012.5 |
| 20260505060050 | 58 | 333 | 4.3 | 7.8 | 0.00 | 0.00 | 0.00 | 28 | 1013.0 |
| 20260505055545 | 58 | 186 | 2.6 | 14.8 | 0.00 | 0.00 | 0.00 | 28 | 1013.0 |
| 20260505055042 | 58 | 216 | 3.5 | 14.8 | 0.00 | 0.00 | 0.00 | 27 | 1013.1 |
| 20260505054539 | 58 | 285 | 6.1 | 11.3 | 0.00 | 0.00 | 0.00 | 27 | 1013.1 |
| 20260505054037 | 58 | 287 | 2.6 | 7.8 | 0.00 | 0.00 | 0.00 | 27 | 1013.1 |
| 20260505053534 | 58 | 161 | 7.8 | 13.0 | 0.00 | 0.00 | 0.00 | 27 | 1012.8 |
| 20260505053031 | 59 | 217 | 7.0 | 13.9 | 0.00 | 0.00 | 0.00 | 27 | 1013.1 |
| 20260505052528 | 59 | 289 | 6.1 | 9.6 | 0.00 | 0.00 | 0.00 | 27 | 1013.1 |
| 20260505052025 | 59 | 298 | 3.5 | 13.9 | 0.00 | 0.00 | 0.00 | 26 | 1013.1 |
| 20260505051522 | 59 | 233 | 7.0 | 11.3 | 0.00 | 0.00 | 0.00 | 26 | 1013.0 |
| 20260505051020 | 59 | 293 | 5.2 | 11.3 | 0.00 | 0.00 | 0.00 | 26 | 1013.0 |
| 20260505050518 | 59 | 288 | 6.1 | 13.0 | 0.00 | 0.00 | 0.00 | 26 | 1013.3 |
| 20260505041445 | 60 | 286 | 4.3 | 8.7 | 0.00 | 0.00 | 0.00 | 26 | 1013.3 |
| 20260505040943 | 60 | 345 | 3.5 | 11.3 | 0.00 | 0.00 | 0.00 | 26 | 1013.3 |
| 20260505040440 | 60 | 8 | 4.3 | 7.8 | 0.00 | 0.00 | 0.00 | 26 | 1013.4 |
| 20260505035937 | 60 | 22 | 2.6 | 11.3 | 0.00 | 0.00 | 0.00 | 26 | 1013.6 |
| 20260505035433 | 60 | 312 | 10.4 | 17.4 | 0.00 | 0.00 | 0.00 | 26 | 1013.6 |
| 20260505034930 | 60 | 297 | 7.0 | 12.2 | 0.00 | 0.00 | 0.00 | 26 | 1013.6 |
| 20260505034426 | 60 | 296 | 3.5 | 8.7 | 0.00 | 0.00 | 0.00 | 26 | 1013.6 |
| 20260505033924 | 60 | 337 | 2.6 | 8.7 | 0.00 | 0.00 | 0.00 | 25 | 1013.5 |
| 20260505033420 | 61 | 334 | 4.3 | 9.6 | 0.00 | 0.00 | 0.00 | 25 | 1013.4 |
| 20260505032919 | 61 | 309 | 4.3 | 7.8 | 0.00 | 0.00 | 0.00 | 25 | 1013.5 |
| 20260505032415 | 61 | 332 | 2.6 | 7.0 | 0.00 | 0.00 | 0.00 | 25 | 1013.3 |
| 20260505031912 | 61 | 301 | 1.7 | 1.7 | 0.00 | 0.00 | 0.00 | 25 | 1013.1 |
| 20260505031409 | 61 | 336 | 1.7 | 11.3 | 0.00 | 0.00 | 0.00 | 24 | 1013.1 |
| 20260505030906 | 62 | 261 | 6.1 | 9.6 | 0.00 | 0.00 | 0.00 | 24 | 1013.0 |
| 20260505030402 | 62 | 341 | 7.0 | 13.0 | 0.00 | 0.00 | 0.00 | 23 | 1013.0 |
| 20260505025857 | 62 | 258 | 4.3 | 5.2 | 0.00 | 0.00 | 0.00 | 23 | 1012.8 |
| 20260505025355 | 62 | 266 | 5.2 | 7.8 | 0.00 | 0.00 | 0.00 | 23 | 1013.4 |
| 20260505024854 | 62 | 348 | 8.7 | 18.2 | 0.00 | 0.00 | 0.00 | 23 | 1013.0 |
| 20260505024351 | 62 | 303 | 3.5 | 7.8 | 0.00 | 0.00 | 0.00 | 23 | 1013.0 |
| 20260505023848 | 63 | 359 | 1.7 | 5.2 | 0.00 | 0.00 | 0.00 | 23 | 1012.8 |
| 20260505023345 | 63 | 300 | 7.8 | 12.2 | 0.00 | 0.00 | 0.00 | 23 | 1013.0 |
| 20260505022842 | 63 | 309 | 2.6 | 9.6 | 0.00 | 0.00 | 0.00 | 23 | 1012.9 |
| 20260505022339 | 62 | 194 | 4.3 | 7.0 | 0.00 | 0.00 | 0.00 | 23 | 1012.8 |
| 20260505021836 | 62 | 22 | 0.9 | 2.6 | 0.00 | 0.00 | 0.00 | 24 | 1012.9 |
| 20260505021333 | 63 | 335 | 2.6 | 4.3 | 0.00 | 0.00 | 0.00 | 23 | 1012.8 |
| 20260505020828 | 63 | 318 | 1.7 | 2.6 | 0.00 | 0.00 | 0.00 | 23 | 1012.8 |
| 20260505020324 | 63 | 16 | 0.0 | 5.2 | 0.00 | 0.00 | 0.00 | 23 | 1012.8 |
| 20260505015821 | 64 | 175 | 0.9 | 1.7 | 0.00 | 0.00 | 0.00 | 22 | 1012.8 |
| 20260505015318 | 64 | 317 | 5.2 | 13.9 | 0.00 | 0.00 | 0.00 | 22 | 1012.7 |
| 20260505014816 | 64 | 326 | 2.6 | 8.7 | 0.00 | 0.00 | 0.00 | 22 | 1012.5 |
| 20260505014312 | 64 | 27 | 1.7 | 4.3 | 0.00 | 0.00 | 0.00 | 22 | 1012.7 |
| 20260505013809 | 64 | 346 | 2.6 | 4.3 | 0.00 | 0.00 | 0.00 | 22 | 1012.4 |
| 20260505013306 | 64 | 353 | 6.1 | 11.3 | 0.00 | 0.00 | 0.00 | 21 | 1012.5 |
| 20260505012805 | 64 | 332 | 4.3 | 7.0 | 0.00 | 0.00 | 0.00 | 21 | 1012.3 |
| 20260505012304 | 64 | 9 | 1.7 | 7.0 | 0.00 | 0.00 | 0.00 | 21 | 1012.5 |
| 20260505011757 | 63 | 241 | 1.7 | 12.2 | 0.00 | 0.00 | 0.00 | 21 | 1012.2 |
| 20260505011255 | 64 | 21 | 0.9 | 4.3 | 0.00 | 0.00 | 0.00 | 21 | 1012.2 |
| 20260505010750 | 64 | 274 | 1.7 | 2.6 | 0.00 | 0.00 | 0.00 | 20 | 1012.2 |
| 20260505010247 | 64 | 325 | 2.6 | 7.8 | 0.00 | 0.00 | 0.00 | 20 | 1011.9 |
| 20260505005743 | 64 | 294 | 2.6 | 4.3 | 0.00 | 0.00 | 0.00 | 20 | 1012.4 |
| 20260505005240 | 64 | 235 | 1.7 | 8.7 | 0.00 | 0.00 | 0.00 | 20 | 1012.4 |